Regional Weather Roundup
Issued by NWS Jackson, KY

Home | Current Version | Previous Version | Text Only | Print | Product List | Glossary Off
Versions: 1 2 3 4 5 6 7 8 9 10 11 12 13 14 15 16 17 18 19 20 21 22 23 24 25 26 27 28 29 30 31 32 33 34 35 36 37 38 39 40 41 42 43 44 45 46 47 48 49 50

000
ASUS43 KJKL 011311
RWRJKL

EAST KENTUCKY HOURLY WEATHER ROUNDUP
NATIONAL WEATHER SERVICE JACKSON KY
900 AM EDT SAT NOV 01 2014

NOTE: "FAIR" INDICATES FEW OR NO CLOUDS BELOW 12,000 FEET WITH
NO SIGNIFICANT WEATHER AND/OR OBSTRUCTIONS TO VISIBILITY.

* THESE REPORTS ARE NOT UNDER NWS QUALITY CONTROL AND MAY NOT
  REPORT WEATHER SUCH AS PRECIPITATION AND FOG.

KYZ079-080-083-085-087-088-110-112-115-119-120-011400
...EASTERN KENTUCKY...

CITY           SKY/WX    TMP DP  RH WIND       PRES   REMARKS
JACKSON        CLOUDY    33  31  92 VRB5      30.04R WCI  29
LONDON         CLOUDY    34  30  85 NW10      30.08R FOG     WCI  26
SOMERSET*      LGT SNOW  32  32 100 N12       30.15R WCI  23
MONTICELLO*    FLURRIES  35  32  89 NW7G18    30.17R WCI  29
WILLIAMSBURG*  CLOUDY    32  32 100 CALM      30.10
MIDDLESBORO*   LGT SNOW  34  31  88 N15G22    30.05R WCI  24
HARLAN APT*    CLOUDY    32  32 100 W6        30.02R VSB 1   WCI  26
BLACK MTN*       N/A     25  25 100 VRB8        N/A  WCI  16
PIKEVILLE APT* DRIZZLE   34  34 100 NW10      29.99R WCI  26
BIG SANDY*     CLOUDY    36  36  99 N8        30.00R WCI  30
MOREHEAD APT*  LGT RAIN  36  34  93 N10G17    30.10R WCI  28
$$

KYZ035-036-041-042-044-050-067-078-099-011400
...CENTRAL KENTUCKY...

CITY           SKY/WX    TMP DP  RH WIND       PRES   REMARKS
MT STERLING*   CLOUDY    32  32 100 N12G18    30.12R WCI  23
FLEMING/MASON* CLOUDY    34  32  93 N15       30.13R WCI  24
DANVILLE*      CLOUDY    32  32 100 N14G20    30.17R FOG     WCI  22
RICHMOND*      CLOUDY    32  30  93 NW10      30.12R WCI  24
LEXINGTON      CLOUDY    36  30  79 N16G25    30.15R WCI  26
FRANKFORT      FLURRIES  34  29  82 N13G23    30.18R WCI  25
$$

KYZ091>093-OHZ055-061-077-WVZ005-015-034-035-042-011400
...SOUTHERN OHIO/WEST VIRGINIA...

CITY           SKY/WX    TMP DP  RH WIND       PRES   REMARKS
COVINGTON      FLURRIES  34  29  82 N16G31    30.19R WCI  24
COLUMBUS       CLOUDY    39  33  79 N22G29    30.09R WCI  29
DAYTON         CLOUDY    34  29  82 N21G29    30.21R WCI  22
WILMINGTON     CLOUDY    35  30  82 N18       30.14R WCI  24
HUNTINGTON     CLOUDY    38  37  97 NW10      30.02R WCI  31
CHARLESTON     LGT RAIN  42  39  89 N9        29.96R FOG
PINEVILLE*     MIX PCPN  36  36 100 MISG      29.97R
BECKLEY        LGT RAIN  36  35  96 N12G22    29.87R VSB 3/4 WCI  28
BLUEFIELD      LGT SNOW  33  30  88 W7        29.86R FOG     WCI  27
$$

VAZ002-007-008-TNZ017-027-036-066-071-011400
...SOUTHWEST VIRGINIA/EAST TENNESSEE...

CITY           SKY/WX    TMP DP  RH WIND       PRES   REMARKS
WISE*          MIX PCPN  32  32 100 NW12G20   29.93R WCI  23
JONESVILLE*    LGT RAIN  34  32  93 W7        30.02R WCI  28
ABINGDON*      LGT SNOW  35  34  95 CALM      29.91R
BRISTOL        LGT SNOW  33  33 100 W6        29.95R VSB 1   WCI  28
KNOXVILLE      LGT SNOW  36  31  82 N13G22    30.06R WCI  27
OAK RIDGE      CLOUDY    38  29  70 N10G18    30.08R WCI  31
CROSSVILLE     CLOUDY    32  28  85 NW13G25   30.09R WCI  22
NASHVILLE      MOCLDY    37  26  64 N10       30.25R WCI  30
$$

...KEY TO REMARKS...
VSB - VISIBILITY IN MILES
WCI - WIND CHILL INDEX
HX  - HEAT INDEX

$$



USA.gov is the U.S. government's official web portal to all federal, state and local government web resources and services.